"Pseudo-MPEC" for P11pjjw

Created 2021 Nov 26 15:07:13 UT using Find_Orb

Click here for an explanation of pseudo-MPECs

 
 Astrometry: 
     P11pjjw  C2021 11 240Lj)/)g4vUR7blM*I4$1NgrNsoD+30+w6OEXG3TflXs#[-[l[HecF51
     P11pjjw  C2021 11 24v4.'!rfSb;3.t[u(7aNVsG3T.n!Cp@-F.;N0g:cO0v7^13fIN;YlF51
     P11pjjw  C2021 11 240K:eHd+U1:J_$7SgAc=AstrometryXGOEhRN)1*yW:$qM5e(FYS+F51
     P11pjjw pC2021 11 24]D9$evx$%ClWKOhUNypSJPZ_o,Ookfn*kYaA1?F/1#Z`E6hD`unjL01
     P11pjjw pC2021 11 24U-_r9hA_U5iI*uZIAiZD$ti:cg^5DnB]f6Lau[w5I04rQX-O\'rvL01
     P11pjjw pC2021 11 24D_P]NNQp1q`]X[r/-cIqxuHV(redacted;wldIBbbclickLy6*a1L01
     P11pjjw pC2021 11 24!Go4)Aw]Oa,F_[Ioa\J]D2/D#/(d@*1irn1oQ:V7`oMckd%MhbKTL01
     P11pjjw pC2021 11 24KIWZRA!6-D.UUW-Ihxd]KM7[CYxo4Ik*pg_,t]nOmL6:5Q:T-1EiL01
     P11pjjw  C2021 11 26T%A#9jB^NlKgSEKGOMheree4gT;sIIZnI4Mjforl@54%=P+3P0[%F51
     P11pjjw  C2021 11 26(.DPy1#HZ)\)-JVwwfP*1,5D\EYaMB,Cr_Uua5XCemO=0):\3%hHF51
     P11pjjw  C2021 11 26JKG]fN%LrQ1'rp_o5$cAMDKgZ^mHaqMb.nk4@=e,DlX:+N)/7GQEF51
     P11pjjw  C2021 11 26V+%nR(/#/r2#=FxZeexplanation^$WrjL[#Wy#3_\[7k;(=M+ZMF51

Station data:
(F51) Pan-STARRS 1, Haleakala  (N20.707235 W156.255910)  US/Hawaii.
   Observers N. Primak, A. Schultz, S. Watters, J. Thiel, T. Goggia. Measurer
   PS1 Science Consortium. 1.8-m Ritchey-Chrétien + CCD.
(L01) Višnjan Observatory, Tičan  (N45.290900 E13.749300)  Croatia.
   Observers K. Korlević, E. Pettarin. Measurer E. Pettarin. 1.0-m f/2.9
   reflector + CCD.

Orbital elements:  P11pjjw
   Perihelion 2021 Sep 30.270233 +/- 0.167802 TT =  6:29:08 (JD 2459487.770233)
Epoch 2021 Nov 26.0 TT = JDT 2459544.5   Earth MOID: 0.0196   Ma: 0.0365
M  23.60959148 +/- 0.6175777        (J2000 ecliptic)          AutoNEOCP
n   0.41617642 +/- 0.00970926       Peri.  327.35467 +/- 0.2109767
a   1.77671485 +/- 0.0276248        Node    20.57227 +/- 0.1756552
e   0.5297005 +/- 0.00816515        Incl.    2.78506 +/- 0.0280626
P   2.37/865.00d           H 25.0   G  0.15   U  9.6  
q 0.83558805 +/- 0.00160379    Q 2.71784165 +/- 0.0574312
From 12 observations 2021 Nov. 24-26; mean residual 0".37
Residuals in arcseconds: 
211124 F51  .06+  .21-    211124 L01  .82+  .73-    211126 F51  .06+  .04-    
211124 F51  .15-  .02-    211124 L01  .28+  .55-    211126 F51  .08+  .07-    
211124 F51  .07+  .17+    211124 L01  .39-  .45+    211126 F51  .12-  .05+    
211124 L01  .03-  .09+    211124 L01  .65-  .85+    211126 F51  .02-  .03+    

Ephemerides (geocentric):
Date (UTC) HH   RA              Dec         delta   r     elong  mag " sig PA
---- -- -- --  -------------   -----------  ------ ------ -----  --- ---- ---
2021 11 26 15  02 35 47.359   +30 55 14.60  .14044 1.1174 156.8 22.0 .282 112
2021 11 26 16  02 35 59.674   +30 54 46.67  .14078 1.1177 156.9 22.0 .297 113
2021 11 26 17  02 36 11.935   +30 54 18.77  .14113 1.1180 156.9 22.0 .312 113
2021 11 26 18  02 36 24.141   +30 53 50.90  .14147 1.1183 156.9 22.0 .326 113
2021 11 26 19  02 36 36.293   +30 53 23.06  .14181 1.1187 156.9 22.0 .341 113
2021 11 26 20  02 36 48.391   +30 52 55.25  .14215 1.1190 156.9 22.0 .356 113
2021 11 26 21  02 37 00.435   +30 52 27.47  .14249 1.1193 156.9 22.0 .371 113
2021 11 26 22  02 37 12.427   +30 51 59.72  .14284 1.1196 156.9 22.0 .387 113
2021 11 26 23  02 37 24.365   +30 51 32.01  .14318 1.1200 156.9 22.1 .402 113
2021 11 27 00  02 37 36.252   +30 51 04.32  .14352 1.1203 157.0 22.1 .417 113
2021 11 27 01  02 37 48.086   +30 50 36.66  .14386 1.1206 157.0 22.1 .433 113
2021 11 27 02  02 37 59.869   +30 50 09.04  .14421 1.1209 157.0 22.1 .449 113
2021 11 27 03  02 38 11.601   +30 49 41.45  .14455 1.1213 157.0 22.1 .464 113
2021 11 27 04  02 38 23.282   +30 49 13.89  .14489 1.1216 157.0 22.1 .480 113
2021 11 27 05  02 38 34.912   +30 48 46.36  .14524 1.1219 157.0 22.1 .496 113
2021 11 27 06  02 38 46.492   +30 48 18.87  .14558 1.1222 157.0 22.1 .512 113
2021 11 27 07  02 38 58.022   +30 47 51.41  .14593 1.1226 157.0 22.1 .529 113
2021 11 27 08  02 39 09.503   +30 47 23.98  .14627 1.1229 157.0 22.1 .545 113
2021 11 27 09  02 39 20.934   +30 46 56.58  .14661 1.1232 157.0 22.1 .561 114
2021 11 27 10  02 39 32.317   +30 46 29.22  .14696 1.1235 157.0 22.1 .578 114
2021 11 27 11  02 39 43.651   +30 46 01.89  .14730 1.1239 157.1 22.1 .594 114
2021 11 27 12  02 39 54.937   +30 45 34.60  .14765 1.1242 157.1 22.1 .611 114
2021 11 27 13  02 40 06.175   +30 45 07.34  .14799 1.1245 157.1 22.1 .628 114
2021 11 27 14  02 40 17.366   +30 44 40.12  .14834 1.1248 157.1 22.1 .645 114
2021 11 27 15  02 40 28.509   +30 44 12.93  .14868 1.1252 157.1 22.1 .662 114
2021 11 27 16  02 40 39.606   +30 43 45.77  .14903 1.1255 157.1 22.1 .679 114
2021 11 27 17  02 40 50.655   +30 43 18.65  .14938 1.1258 157.1 22.1 .697 114
2021 11 27 18  02 41 01.659   +30 42 51.57  .14972 1.1261 157.1 22.2 .714 114
2021 11 27 19  02 41 12.617   +30 42 24.52  .15007 1.1265 157.1 22.2 .732 114
2021 11 27 20  02 41 23.529   +30 41 57.51  .15041 1.1268 157.1 22.2 .749 114
2021 11 27 21  02 41 34.396   +30 41 30.53  .15076 1.1271 157.1 22.2 .767 114
2021 11 27 22  02 41 45.217   +30 41 03.59  .15111 1.1274 157.1 22.2 .785 114
2021 11 27 23  02 41 55.994   +30 40 36.68  .15146 1.1277 157.1 22.2 .803 114
2021 11 28 00  02 42 06.727   +30 40 09.81  .15180 1.1281 157.1 22.2 .821 115
2021 11 28 01  02 42 17.415   +30 39 42.98  .15215 1.1284 157.2 22.2 .840 115
2021 11 28 02  02 42 28.060   +30 39 16.18  .15250 1.1287 157.2 22.2 .858 115
2021 11 28 03  02 42 38.661   +30 38 49.42  .15284 1.1291 157.2 22.2 .876 115
2021 11 28 04  02 42 49.219   +30 38 22.70  .15319 1.1294 157.2 22.2 .895 115
2021 11 28 05  02 42 59.734   +30 37 56.02  .15354 1.1297 157.2 22.2 .914 115
2021 11 28 06  02 43 10.206   +30 37 29.37  .15389 1.1300 157.2 22.2 .933 115
2021 11 28 07  02 43 20.636   +30 37 02.76  .15424 1.1304 157.2 22.2 .951 115
2021 11 28 08  02 43 31.023   +30 36 36.18  .15459 1.1307 157.2 22.2 .971 115
2021 11 28 09  02 43 41.369   +30 36 09.64  .15493 1.1310 157.2 22.2 .990 115
2021 11 28 10  02 43 51.674   +30 35 43.15  .15528 1.1313 157.2 22.2 1.01 115
2021 11 28 11  02 44 01.937   +30 35 16.68  .15563 1.1317 157.2 22.2 1.03 115
2021 11 28 12  02 44 12.159   +30 34 50.26  .15598 1.1320 157.2 22.2 1.05 115
2021 11 28 13  02 44 22.340   +30 34 23.87  .15633 1.1323 157.2 22.3 1.07 115
2021 11 28 14  02 44 32.480   +30 33 57.53  .15668 1.1326 157.2 22.3 1.09 115